Regional Weather Roundup
Issued by NWS Bismarck, ND

Home | Current Version | Previous Version | Text Only | Print | Product List | Glossary On
Versions: 1 2 3 4 5 6 7 8 9 10 11 12 13 14 15 16 17 18 19 20 21 22 23 24 25 26 27 28 29 30 31 32 33 34 35 36 37 38 39 40 41 42 43 44 45 46 47 48 49 50
000
ASUS43 KBIS 300510
RWRBIS

NWR BROADCAST TEXT
NATIONAL WEATHER SERVICE BISMARCK ND
1200 AM CDT SAT MAY 30 2015

NOTE: "FAIR" INDICATES FEW OR NO CLOUDS BELOW 12,000 FEET WITH NO
SIGNIFICANT WEATHER AND/OR OBSTRUCTIONS TO VISIBILITY.


CITY           SKY/WX    TMP DP  RH WIND       PRES   REMARKS
WILLISTON      CLEAR     47  32  56 NE6       30.29S
MINOT          CLEAR     43  33  68 NE10      30.31R
MINOT AFB      NOT AVBL
BISMARCK       CLEAR     47  34  60 NW7       30.30S
DICKINSON      CLEAR     41  33  73 SE6       30.28S
GARRISON         N/A     43  36  76 NE5       30.30S
HETTINGER ARPT CLEAR     39  34  82 CALM      30.30S
JAMESTOWN      CLEAR     44  34  67 NE13      30.29R
BEACH          FAIR      39  37  93 E8        30.29R
CARRINGTON     FAIR      41  32  70 NE15      30.33R
CROSBY         FAIR      37  34  87 E6        30.32S
HARVEY         FAIR      41  32  70 NE13      30.33R
HAZEN          FAIR      34  32  93 S3        30.31S
LINTON         FAIR      39  37  93 CALM      30.28S
MANDAN         MOCLDY    41  34  75 NW6       30.30S
OAKES            N/A     43  39  87 N13       30.27R
STANLEY        FAIR      43  39  87 NE6       30.32S
WATFORD CITY   FAIR      41  36  81 N3        30.28S
$$

CITY           SKY/WX    TMP DP  RH WIND       PRES   REMARKS
GRAND FORKS    CLEAR     40  30  67 N12       30.32R
GRAND FORKS AF CLEAR     39  27  62 N17       30.33R
DEVILS LAKE    CLEAR     39  25  56 NE13      30.33S
FARGO          MOCLDY    45  34  65 N17       30.27R
CANDO          FAIR      37  27  65 NE9       30.35S
CAVALIER       FAIR      39  27  60 N8        30.36R
GRAFTON        FAIR      39  28  65 N14       30.35R
LANGDON        FAIR      37  28  70 NE13G18   30.35R
ROLLA          FAIR      34  32  93 NE6       30.36S
WALHALLA       FAIR      37  25  60 MISG      30.37R
$$

CITY           SKY/WX    TMP DP  RH WIND       PRES   REMARKS
ABERDEEN       MOCLDY    48  38  68 NE13      30.25R
MOBRIDGE       CLEAR     41  38  89 N7        30.26R
BUFFALO          N/A     42  35  76 E9        30.22S
RAPID CITY     CLEAR     41  36  82 CALM      30.30R
GLASGOW        CLEAR     48  34  58 E10       30.23F
SIDNEY         CLEAR     45  30  57 CALM      30.28F
WOLF POINT     PTCLDY    45  34  65 E5        30.26F
GLENDIVE       CLEAR     45  36  70 NE7       30.27S
MILES CITY     CLEAR     50  32  50 E7        30.22F
BAKER          CLEAR     39  33  79 SE7       30.27S
$$

CITY           SKY/WX    TMP DP  RH WIND       PRES   REMARKS
BILLINGS       PTCLDY    53  45  74 E6        30.17F
GREAT FALLS    CLOUDY    57  47  69 SE12      30.07S
REGINA         PTCLDY    43  25  49 NE8       30.34S
$$



USA.gov is the U.S. government's official web portal to all federal, state and local government web resources and services.